ATLAS 5 CENTAUR DEB, 46638

Orbit data source: Space-Track

ATLAS 5 CENTAUR DEB, 46638 is space debris in HEO originally from a launch on Wed, 17 Sep 2014 UTC launched from the Air Force Eastern Test Range (AFETR). Debris objects in space refer to the collection of defunct objects orbiting the Earth. Examples of debris include non-operational satellites, rocket bodies, and fragments generated from explosions, collisions, or faulty payload assembly.

Loading next visibility...
Identifier
46638, 2014-055CN
Orbit
HEO
Country
Flag of USUS
Related business
Flag of USUnited Launch Alliance/Lockheed Martin (US)
Manufacturer
Unknown
Mission
Spacecraft
Bus & Motor
Unknown
Mass
Unknown
Launch date (UTC)
2014-09-17 (12 years ago)
Launch vehicle
Unknown
Launch site
Air Force Eastern Test Range (AFETR)
Object type
Payload
Rocket body
Debris
Shape & HBR
Unknown shape, 1.1 m
Radar Cross Section
Small (<0.1 m²)

Expand to show TLE details & history
Last TLE update: 1 week ago

TLE from 1 week ago
0 ATLAS 5 CENTAUR DEB
1 46638U 14055CN  26164.51045485 -.00000061  00000-0  00000+0 0  9990
2 46638  21.1001  95.5783 5180074 257.5242  42.2526  1.92376943 39943
Epoch: 2026-06-13T12:15Z
TLE epoch observation values (Epoch: 2026-06-13T12:15:03.299Z)
Latitude
0.00008°
Longitude
9.88555°
Altitude
16,133.962 km
Speed
4.562 km/s
True Right ascension
06h 21m 53s
True Declination
0° 00' 00"
Sunlit
Object was in daylight at epoch
Visualization orbit readout
Latitude
Unknown
Longitude
Unknown
Altitude
Unknown
Speed
Unknown
Apparent Right ascension
Unknown
Apparent Declination
Unknown
Sunlit
N/A
Visualization observer readout
Local Sidereal Time
21:41:37
Azimuth
Unknown
Elevation
Unknown
Doppler factor
Unknown
Orbital elements
Apogee altitude
35,079.734 km
Perigee altitude
6,785.427 km
Semi-major axis
27,310.717 km
Eccentricity
0.51801
Inclination
21.1001°
RAAN
95.5783°
Arg. of periapsis
257.5242°
True anomaly
102.52934°
Mean anomaly
42.2526°
Eccentric anomaly
70.17283°
Mean motion
0.48089 °/min
Orbital period
748.62 mins
BSTAR
0
Loading maneuver chart data...
Computing Atmospheric mass density...

Documentation

Showing up to 5 results
|